Accueil
METAR-TAF:

METAR-TAF

Aéroports :

Nevers, France

Aéroport de Nevers-Fourchambault

latitude: 47-00N, longitude: 003-06E, altitude: 180 m

Observation

Le bulletin a été fait il y a 7 heures et 38 minutes, à 18:00 UTC
Vent 7 kt de ouest/sud-ouest, variant entre sud/sud-ouest et ouest
Température 25°C
Humidité 57%
Pression 1020 hPa
Visibilité 10 km ou plus
Nuages épars à une hauteur de 4300 ft

METAR: LFQG 231800Z AUTO 24007KT 210V270 9999 SCT043 25/16 Q1020

Heure: 03:38 (01:38 UTC)


TAF: absent

Observations et prévisions météorologiques de plus de 4000 aéroports (messages METAR et TAF).

Les stations disponibles sont représentées par des disques jaunes et rouges sur la carte.

Passer la souris dessus pour voir le nom de la station.

Cliquer dessus pour voir les observations et prévisions météorologiques.

Pour changer de carte: cliquez sur les boutons verts avec une croix noire pour zoomer, sur le bouton vert avec un tiret pour effectuer un zoom arrière, ou sur les flèches vertes pour les cartes adjacentes.


METAR-TAF: